Lake Fork, ID

4:41 PM MST on February 09, 2016 (GMT -0700)
McCall

Weather History for KMYL - April, 2014

Change the Weather History Date:

Sunday, April 27, 2014

  Actual Average Record
Temperature  
Mean Temperature 32 °F 40 °F  
Max Temperature 39 °F 53 °F 82 °F (1987)
Min Temperature 25 °F 28 °F 13 °F (1955)
Degree Days  
Heating Degree Days 33 25  
Month to date heating degree days 714 774  
Since 1 July heating degree days 7720 8563  
Cooling Degree Days 0 0  
Month to date cooling degree days 0 0  
Year to date cooling degree days 0 0  
Moisture  
Dew Point 27 °F    
Average Humidity 76    
Maximum Humidity 92    
Minimum Humidity 59    
Precipitation  
Precipitation 0.17 in 0.06 in 0.78 in (1954)
Month to date precipitation 2.34 1.73  
Year to date precipitation 13.29 7.40  
Sea Level Pressure  
Sea Level Pressure 29.84 in    
Wind  
Wind Speed 4 mph (NW)    
Max Wind Speed 22 mph    
Max Gust Speed 27 mph    
Visibility 5 miles    
Events Fog , Snow    
T = Trace of Precipitation, MM = Missing Value Source: NWS Daily Summary

Daily Weather History Graph

Daily Weather History Graph

Search for Another Location

Airport or City:

Trip Planner

Search our weather history database for the weather conditions in past years. The results will help you decide how hot, cold, wet, or windy it might be!

Date:

Astronomy

Apr. 27, 2014 Rise Set
Actual Time 6:39 AM MDT 8:44 PM MDT
Civil Twilight 6:08 AM MDT 9:16 PM MDT
Nautical Twilight 5:28 AM MDT 9:56 PM MDT
Astronomical Twilight 4:45 AM MDT 10:39 PM MDT
Moon 5:48 AM MDT (4/27) 7:19 PM MDT (4/27)
Length of Visible Light 15h 08m
Length of Day
14h 05m
Waning Crescent, 3% of the Moon is Illuminated
Apr 27
Waning Crescent
Apr 29
New
May 6
First Quarter
May 14
Full
May 21
Last Quarter

Hourly Weather History & Observations

Time (MDT) Temp. Windchill Dew Point Humidity Pressure Visibility Wind Dir Wind Speed Gust Speed Precip Events Conditions
12:51 AM 28.0 °F - 25.0 °F 88% 29.79 in 10.0 mi Calm Calm - N/A   Clear
2:51 AM 26.1 °F - 21.9 °F 84% 29.77 in 10.0 mi Calm Calm - N/A   Clear
3:51 AM 26.1 °F - 21.0 °F 81% 29.76 in 10.0 mi Calm Calm - N/A   Clear
5:51 AM 27.0 °F - 24.1 °F 89% 29.79 in 10.0 mi Calm Calm - N/A   Overcast
7:51 AM 30.0 °F 25.2 °F 25.0 °F 82% 29.79 in 10.0 mi NNE 4.6 mph - N/A   Overcast
8:51 AM 30.9 °F - 26.1 °F 82% 29.81 in 10.0 mi Calm Calm - N/A   Overcast
9:47 AM 30.2 °F - 26.6 °F 86% 29.76 in 1.8 mi Calm Calm - 0.00 in Snow Light Snow
9:51 AM 30.9 °F - 27.0 °F 85% 29.82 in 0.8 mi Calm Calm - 0.01 in Snow Light Snow
10:10 AM 30.9 °F - 28.0 °F 89% 29.76 in 1.0 mi Calm Calm - 0.01 in Snow Light Snow
10:16 AM 30.9 °F - 28.9 °F 92% 29.76 in 2.0 mi Calm Calm - 0.01 in Snow Light Snow
10:23 AM 30.9 °F 27.5 °F 28.0 °F 89% 29.76 in 7.0 mi SSE 3.5 mph - 0.01 in Snow Light Snow
10:38 AM 32.0 °F 25.6 °F 28.0 °F 85% 29.76 in 10.0 mi SSE 6.9 mph - 0.01 in   Overcast
10:51 AM 34.0 °F 27.2 °F 30.0 °F 85% 29.82 in 10.0 mi SE 8.1 mph - 0.01 in   Overcast
11:13 AM 34.0 °F 24.6 °F 30.0 °F 85% 29.76 in 4.0 mi SSE 13.8 mph - 0.00 in Snow Light Snow
11:51 AM 37.0 °F 28.1 °F 30.0 °F 76% 29.81 in 10.0 mi South 15.0 mph - 0.00 in Snow Light Snow
12:10 PM 39.0 °F 30.3 °F 30.9 °F 73% 29.75 in 9.0 mi South 16.1 mph - 0.01 in   Unknown
12:31 PM 36.0 °F 29.0 °F 28.0 °F 73% 29.75 in 2.5 mi South 9.2 mph - 0.02 in Snow Light Snow
12:39 PM 34.0 °F 22.1 °F 28.0 °F 79% 29.76 in 1.0 mi West 21.9 mph 26.5 mph 0.03 in Snow Light Snow
12:43 PM 30.9 °F 19.1 °F 28.0 °F 89% 29.77 in 0.2 mi West 18.4 mph 26.5 mph 0.03 in Fog , Snow Heavy Snow
12:47 PM 30.2 °F 19.3 °F 26.6 °F 86% 29.77 in 0.2 mi WSW 15.0 mph 26.5 mph 0.04 in Fog , Snow Heavy Snow
12:51 PM 30.0 °F 19.1 °F 28.0 °F 92% 29.85 in 0.2 mi WSW 15.0 mph 26.5 mph 0.05 in Fog , Snow Heavy Snow
1:05 PM 30.2 °F 22.6 °F 24.8 °F 80% 29.77 in 1.0 mi West 8.1 mph 20.7 mph N/A Snow Light Snow
1:07 PM 30.9 °F 22.8 °F 25.0 °F 79% 29.78 in 3.0 mi West 9.2 mph - 0.02 in Snow Light Snow
1:14 PM 30.9 °F 24.3 °F 25.0 °F 79% 29.78 in 9.0 mi Variable 6.9 mph - 0.02 in Snow Light Snow
1:30 PM 30.9 °F - 25.0 °F 79% 29.80 in 8.0 mi Calm Calm - 0.02 in   Overcast
1:51 PM 30.9 °F 27.5 °F 24.1 °F 76% 29.88 in 8.0 mi East 3.5 mph - 0.02 in Snow Light Snow
2:51 PM 35.1 °F 32.2 °F 26.1 °F 70% 29.88 in 10.0 mi Variable 3.5 mph - 0.00 in   Overcast
3:25 PM 35.1 °F - 27.0 °F 72% 29.81 in 9.0 mi Calm Calm - 0.00 in   Mostly Cloudy
3:44 PM 35.1 °F - 27.0 °F 72% 29.82 in 6.0 mi Calm Calm - 0.01 in Snow Light Snow
3:51 PM 35.1 °F - 26.1 °F 70% 29.89 in 6.0 mi Calm Calm - 0.01 in Snow Light Snow
4:09 PM 32.0 °F 22.1 °F 26.6 °F 80% 29.84 in 1.8 mi SW 13.8 mph 23.0 mph N/A Snow Light Snow
4:18 PM 30.9 °F 26.2 °F 27.0 °F 85% 29.84 in 1.0 mi South 4.6 mph 19.6 mph 0.00 in Snow Light Snow
4:23 PM 30.9 °F - 27.0 °F 85% 29.85 in 2.0 mi Calm Calm - 0.00 in Snow Light Snow
4:28 PM 33.1 °F - 27.0 °F 78% 29.85 in 8.0 mi Calm Calm - 0.00 in Snow Light Snow
4:51 PM 34.0 °F 26.0 °F 27.0 °F 75% 29.93 in 10.0 mi North 10.4 mph - 0.00 in   Mostly Cloudy
4:59 PM 32.0 °F 24.8 °F 27.0 °F 82% 29.86 in 1.8 mi NNW 8.1 mph - 0.01 in Snow Light Snow
5:15 PM 32.0 °F 25.6 °F 28.0 °F 85% 29.86 in 1.0 mi NW 6.9 mph - 0.01 in Snow Light Snow
5:21 PM 33.1 °F 27.7 °F 28.9 °F 85% 29.87 in 1.0 mi West 5.8 mph - 0.01 in Snow Light Snow
5:24 PM 33.1 °F 27.7 °F 28.9 °F 85% 29.87 in 1.2 mi Variable 5.8 mph - 0.01 in Snow Light Snow
5:34 PM 35.1 °F 29.3 °F 28.9 °F 78% 29.87 in 3.0 mi North 6.9 mph - 0.01 in Snow Light Snow
5:45 PM 35.1 °F 30.1 °F 28.9 °F 78% 29.86 in 10.0 mi ENE 5.8 mph - 0.01 in   Scattered Clouds
5:51 PM 35.1 °F 31.0 °F 28.9 °F 78% 29.93 in 10.0 mi Variable 4.6 mph - 0.01 in   Scattered Clouds
6:51 PM 37.0 °F 33.3 °F 25.0 °F 62% 29.93 in 10.0 mi North 4.6 mph - N/A   Mostly Cloudy
7:51 PM 33.1 °F 23.0 °F 28.0 °F 82% 29.95 in 2.0 mi NNW 15.0 mph 19.6 mph 0.01 in Snow Light Snow
7:53 PM 32.0 °F 22.1 °F 28.0 °F 85% 29.89 in 1.0 mi NNW 13.8 mph 19.6 mph 0.00 in Snow Light Snow
7:56 PM 30.9 °F 20.7 °F 28.0 °F 89% 29.89 in 0.5 mi North 13.8 mph - 0.01 in Fog , Snow Snow
8:13 PM 30.9 °F 24.3 °F 27.0 °F 85% 29.90 in 0.5 mi North 6.9 mph - 0.05 in Fog , Snow Snow
8:21 PM 30.9 °F 24.3 °F 28.0 °F 89% 29.90 in 1.2 mi NNE 6.9 mph - 0.05 in Snow Light Snow
8:26 PM 30.0 °F 23.2 °F 27.0 °F 88% 29.90 in 3.0 mi ENE 6.9 mph - 0.05 in Snow Light Snow
8:37 PM 30.0 °F 25.2 °F 27.0 °F 88% 29.90 in 9.0 mi NE 4.6 mph - 0.05 in   Mostly Cloudy
10:51 PM 30.0 °F 25.2 °F 27.0 °F 88% 29.99 in 10.0 mi NNE 4.6 mph - N/A   Mostly Cloudy
11:51 PM 30.0 °F 26.5 °F 26.1 °F 85% 29.99 in 8.0 mi North 3.5 mph - 0.00 in Snow Light Snow